Location: Village de las Huertas
(35.3014°N, 106.4095°W)
Time: 09:19:55
(UTC+00:00)

Cosmos 1655 Rocket - Pass Details

Date: 29 October 2020
Orbit: 971 x 1006 km, 83.0° (Epoch: 04 December)

Event Time Altitude Azimuth Distance (km) Brightness Sun altitude
Rises 12:27:12 0° 178° (S) 3,665 7.1 -12.3°
Reaches altitude 10° 12:29:42 10° 176° (S) 2,725 6.5 -11.8°
Maximum altitude 12:35:55 72° 94° (E) 1,038 4.4 -10.6°
Drops below altitude 10° 12:42:13 10° 11° (N) 2,765 6.4 -9.3°
Sets 12:44:46 0° 9° (N) 3,723 7.0 -8.8°
